SENTINEL-5P (42969 NORAD) Tracking and Keplerian Element Data

This shows tracking and keplerian element data for the satellite.

Feedback or suggestion? Click here.




ElementValue
Catalog42969
NameSENTINEL-5P
Epoch Orbit6011
Epoch Day345.1732536
Epoch Year2018
RAAN282.3453
Inclination98.7172
Eccentricity0.0001014
Argument of Perigee88.2232
Mean Anonmoly271.906
Mean Motion14.19549788
Decay Rate-9E-08
L11 42969U 17064A 18345.17325360 -.00000009 00000-0 16491-4 0 9991
L22 42969 98.7172 282.3453 0001014 88.2232 271.9060 14.19549788 60113

Live tracking and technical data element details for SENTINEL-5P (NORAD 42969). SENTINEL-5P can be tracked NOW for your location showing map with azimuth and elevation plus other details from your city location.

Track the satellite on the map from your city or location and see movement details for azimuth, elevation, latitude, longitude, range, height, and movement on the map or in text.







IsCatalogInMostPopularTable: catalog: 42969, numindb: 157
Update: records affected: 1



GetName: 42969 SENTINEL-5P

Hit Count: updated at: Thu, 13 Dec 2018 04:29:58 GMT